FREGAT R/B, 42720

Orbit data source: Space-Track

FREGAT R/B, 42720 is space debris originally from a launch on Thu, 25 May 2017 UTC launched from the Plesetsk Missile And Space Complex (PKMTR). Debris objects in space refer to the collection of defunct objects orbiting the Earth. Examples of debris include non-operational satellites, rocket bodies, and fragments generated from explosions, collisions, or faulty payload assembly.

Loading next visibility...
Identifier
42720, 2017-027B
Orbit
Molniya
Country
Flag of CISCIS
Related business
Manufacturer
Lavochkin
Mission
Spacecraft
Bus & Motor
FREGAT, Unknown motor
Mass
1,000 kg wet, 1,000 kg dry
Launch date (UTC)
2017-05-25 (9 years ago)
Launch vehicle
Unknown
Launch site
Plesetsk Missile And Space Complex (PKMTR)
Object type
Payload
Rocket body
Debris
Shape & HBR
Cyl, 1.7 m
Radar Cross Section
8.354 m², Large (>1 m²)

Expand to show TLE details & history
Last TLE update: 2 days ago

TLE from 2 days ago
0 FREGAT R/B
1 42720U 17027B   26124.36935075 -.00000081  00000-0  66591-2 0  9994
2 42720  62.4982 238.1394 7105294 267.2936  17.1113  2.01972725 65944
Epoch: 2026-05-04T08:51Z
TLE epoch observation values (Epoch: 2026-05-04T08:51:51.904Z)
Latitude
0.00019°
Longitude
-117.13884°
Altitude
7,187.341 km
Speed
6.61 km/s
True Right ascension
15h 52m 20s
True Declination
0° 00' 01"
Sunlit
Object was in full shadow at epoch
Visualization orbit readout
Latitude
Unknown
Longitude
Unknown
Altitude
Unknown
Speed
Unknown
Apparent Right ascension
Unknown
Apparent Declination
Unknown
Sunlit
N/A
Visualization observer readout
Local Sidereal Time
02:14:41
Azimuth
Unknown
Elevation
Unknown
Doppler factor
Unknown
Orbital elements
Apogee altitude
38,841.113 km
Perigee altitude
1,274.256 km
Semi-major axis
26,435.821 km
Eccentricity
0.71053
Inclination
62.4982°
RAAN
238.1394°
Arg. of periapsis
267.2936°
True anomaly
92.8673°
Mean anomaly
17.1113°
Eccentric anomaly
46.77635°
Mean motion
0.50496 °/min
Orbital period
712.93 mins
BSTAR
0.0066591
Loading maneuver chart data...
Computing Atmospheric mass density...
Loading historical data...
Loading historical data...
Loading historical data...
Loading historical data...
Loading historical data...
Loading historical data...
Loading historical data...
Other satellites on launch #27 in the year 2017 (2017-05-25 UTC)

Documentation

Showing up to 5 results
|